UAL63 SBGR-KIAH

Flight info

Callsign UAL63
Flight time N/A
Altitude 36000
Route AMVUL6AXGERTU/10L ORON1A GERTU UM775 EVRIV UM417 DODRI MIPAD SIPAK BURLA BOGIV UL201 LONAX UM782 DELVI ILUBA KEHLI A766 KELPP SOULL1
Aircraft B78X/H-V/N

Departure

Time 2026-05-05 20:26
Airport São Paulo/Guarulhos–Governor André Franco Montoro International Airport (SBGR)

Arrival

Time N/A
Airport George Bush Intercontinental Airport (KIAH)
Time Latitude Longitude Altitude Speed Heading
2026-05-05 20:11 -23.42579 -46.47322 2467 ft 0 kts 255°
2026-05-05 20:16 -23.42575 -46.47304 2467 ft 3 kts 255°
2026-05-05 20:16 -23.42570 -46.47284 2468 ft 3 kts 255°
2026-05-05 20:17 -23.42565 -46.47263 2467 ft 3 kts 236°
2026-05-05 20:17 -23.42552 -46.47247 2468 ft 3 kts 196°
2026-05-05 20:17 -23.42544 -46.47243 2467 ft 0 kts 179°
2026-05-05 20:19 -23.42549 -46.47242 2467 ft 4 kts 170°
2026-05-05 20:19 -23.42604 -46.47221 2470 ft 14 kts 161°
2026-05-05 20:20 -23.42640 -46.47208 2470 ft 16 kts 161°
2026-05-05 20:20 -23.42683 -46.47187 2471 ft 3 kts 147°
2026-05-05 20:20 -23.42684 -46.47187 2471 ft 4 kts 147°
2026-05-05 20:21 -23.42700 -46.47177 2467 ft 7 kts 150°
2026-05-05 20:21 -23.42779 -46.47143 2471 ft 15 kts 163°
2026-05-05 20:21 -23.42816 -46.47136 2468 ft 4 kts 187°
2026-05-05 20:22 -23.42827 -46.47139 2469 ft 1 kts 197°
2026-05-05 20:22 -23.42839 -46.47146 2468 ft 1 kts 217°
2026-05-05 20:22 -23.42854 -46.47183 2467 ft 13 kts 247°
2026-05-05 20:22 -23.42908 -46.47357 2469 ft 36 kts 255°
2026-05-05 20:23 -23.42996 -46.47698 2472 ft 57 kts 254°
2026-05-05 20:23 -23.43022 -46.47793 2470 ft 47 kts 252°
2026-05-05 20:23 -23.43035 -46.47835 2471 ft 38 kts 252°
2026-05-05 20:24 -23.43057 -46.47915 2468 ft 7 kts 253°
2026-05-05 20:24 -23.43095 -46.48054 2470 ft 32 kts 253°
2026-05-05 20:24 -23.43162 -46.48300 2471 ft 25 kts 253°
2026-05-05 20:24 -23.43181 -46.48347 2471 ft 10 kts 236°
2026-05-05 20:25 -23.43246 -46.48375 2472 ft 5 kts 175°
2026-05-05 20:25 -23.43340 -46.48353 2468 ft 22 kts 163°
2026-05-05 20:25 -23.43399 -46.48294 2469 ft 9 kts 99°
2026-05-05 20:25 -23.43371 -46.48128 2469 ft 55 kts 73°
2026-05-05 20:26 -23.43199 -46.47495 2471 ft 135 kts 73°
2026-05-05 20:26 -23.42921 -46.46426 2607 ft 189 kts 81°
2026-05-05 20:26 -23.42925 -46.44940 3798 ft 177 kts 105°
2026-05-05 20:26 -23.43260 -46.43652 5139 ft 191 kts 106°